QPF
0.05 0.04 0.03 0.03 0.03 0.02 0.02 0.02 0.02 0.03 0.05 0.08 0.10 0.11 0.13 0.19 0.22 0.21 0.19 0.18 0.15 0.13 0.12 0.10 0.08 0.08 0.07 0.07 0.06 0.05 0.04 0.03 0.02 0.01 0.01 0.01 0.00 0.00 0.00 0.00 0.00 0.01 0.01
0.06 0.05 0.05 0.03 0.03 0.03 0.02 0.03 0.02 0.03 0.04 0.06 0.07 0.10 0.12 0.14 0.18 0.21 0.20 0.17 0.15 0.13 0.11 0.09 0.08 0.07 0.07 0.07 0.06 0.04 0.03 0.02 0.01 0.01 0.00 0.00 0.00 0.00 0.00 0.00 0.00 0.01 0.01
0.10 0.07 0.07 0.06 0.05 0.03 0.02 0.02 0.03 0.03 0.04 0.05 0.07 0.09 0.09 0.10 0.11 0.12 0.14 0.13 0.12 0.09 0.08 0.07 0.07 0.06 0.06 0.05 0.04 0.03 0.01 0.01 0.01 0.01 0.00 0.00 0.00 0.00 0.00 0.00 0.00 0.00 0.01
0.07 0.06 0.04 0.04 0.04 0.03 0.02 0.02 0.02 0.03 0.03 0.04 0.04 0.05 0.06 0.07 0.08 0.08 0.08 0.08 0.07 0.07 0.06 0.07 0.07 0.06 0.05 0.04 0.03 0.02 0.01 0.01 0.01 0.01 0.00 0.00 0.00 0.00 0.00 0.00 0.00 0.00 0.01
0.04 0.04 0.03 0.03 0.03 0.02 0.02 0.02 0.03 0.03 0.04 0.04 0.03 0.03 0.03 0.04 0.06 0.07 0.06 0.06 0.05 0.06 0.05 0.05 0.06 0.05 0.05 0.03 0.02 0.02 0.02 0.01 0.01 0.01 0.00 0.00 0.00 0.00 0.00 0.00 0.00 0.00 0.00
0.02 0.02 0.01 0.01 0.00 0.01 0.01 0.01 0.01 0.03 0.04 0.04 0.04 0.04 0.04 0.05 0.06 0.06 0.06 0.05 0.05 0.06 0.06 0.05 0.05 0.05 0.03 0.02 0.02 0.02 0.02 0.01 0.01 0.01 0.00 0.00 0.00 0.00 0.00 0.00 0.00 0.00 0.01
0.01 0.00 0.00 0.00 0.00 0.00 0.00 0.00 0.00 0.00 0.01 0.01 0.01 0.02 0.03 0.04 0.05 0.04 0.05 0.04 0.03 0.03 0.04 0.04 0.05 0.04 0.04 0.03 0.03 0.02 0.02 0.01 0.01 0.01 0.01 0.00 0.00 0.01 0.00 0.00 0.00 0.00 0.01
0.00 0.00 0.00 0.00 0.00 0.00 0.00 0.00 0.00 0.00 0.00 0.00 0.00 0.00 0.01 0.02 0.03 0.03 0.03 0.02 0.02 0.03 0.03 0.04 0.05 0.04 0.04 0.04 0.03 0.02 0.02 0.02 0.02 0.01 0.01 0.01 0.01 0.00 0.01 0.01 0.00 0.00 0.00
0.00 0.00 0.00 0.00 0.00 0.00 0.00 0.00 0.00 0.00 0.00 0.00 0.00 0.00 0.00 0.00 0.01 0.02 0.01 0.01 0.01 0.02 0.02 0.03 0.04 0.04 0.04 0.04 0.04 0.04 0.03 0.02 0.02 0.02 0.02 0.02 0.02 0.01 0.00 0.00 0.00 0.00 0.00
0.00 0.00 0.00 0.00 0.00 0.00 0.00 0.00 0.00 0.00 0.00 0.00 0.00 0.00 0.00 0.00 0.00 0.01 0.01 0.00 0.01 0.01 0.02 0.02 0.03 0.04 0.03 0.04 0.04 0.04 0.04 0.03 0.02 0.02 0.02 0.02 0.02 0.02 0.01 0.01 0.00 0.00 0.00
0.00 0.00 0.00 0.00 0.00 0.00 0.00 0.00 0.00 0.00 0.00 0.00 0.00 0.00 0.00 0.00 0.00 0.01 0.01 0.01 0.01 0.02 0.02 0.01 0.02 0.03 0.02 0.04 0.06 0.05 0.05 0.04 0.04 0.05 0.03 0.03 0.02 0.01 0.01 0.01 0.01 0.01 0.00
0.00 0.00 0.00 0.00 0.00 0.00 0.00 0.00 0.00 0.00 0.00 0.00 0.00 0.00 0.00 0.00 0.00 0.01 0.01 0.01 0.01 0.02 0.02 0.01 0.02 0.04 0.04 0.05 0.06 0.07 0.06 0.06 0.05 0.05 0.03 0.03 0.02 0.01 0.02 0.01 0.00 0.00 0.00
0.00 0.00 0.00 0.00 0.00 0.00 0.00 0.00 0.00 0.00 0.00 0.00 0.00 0.00 0.00 0.00 0.01 0.01 0.01 0.01 0.01 0.01 0.01 0.01 0.02 0.03 0.05 0.05 0.05 0.05 0.06 0.05 0.04 0.03 0.02 0.02 0.01 0.01 0.01 0.01 0.00 0.00 0.00
0.00 0.00 0.00 0.00 0.00 0.00 0.00 0.00 0.00 0.00 0.00 0.00 0.00 0.00 0.00 0.00 0.00 0.01 0.01 0.01 0.01 0.01 0.01 0.01 0.02 0.03 0.04 0.04 0.04 0.04 0.07 0.06 0.04 0.03 0.02 0.01 0.01 0.00 0.00 0.00 0.00 0.00 0.00
0.00 0.00 0.00 0.00 0.00 0.00 0.00 0.00 0.00 0.00 0.00 0.00 0.00 0.00 0.00 0.00 0.00 0.00 0.01 0.01 0.01 0.01 0.01 0.01 0.01 0.01 0.01 0.01 0.02 0.02 0.03 0.03 0.02 0.01 0.01 0.01 0.01 0.00 0.00 0.00 0.00 0.00 0.00
0.00 0.00 0.00 0.00 0.00 0.00 0.00 0.00 0.00 0.00 0.00 0.00 0.00 0.00 0.00 0.00 0.00 0.00 0.00 0.00 0.01 0.01 0.01 0.01 0.00 0.00 0.00 0.01 0.01 0.01 0.00 0.00 0.00 0.00 0.01 0.01 0.01 0.01 0.00 0.00 0.00 0.00 0.00
0.00 0.00 0.00 0.00 0.00 0.00 0.00 0.00 0.00 0.00 0.00 0.00 0.00 0.00 0.00 0.00 0.00 0.00 0.00 0.00 0.00 0.01 0.01 0.01 0.00 0.01 0.01 0.00 0.00 0.00 0.00 0.00 0.00 0.00 0.01 0.00 0.00 0.00 0.00 0.00 0.00 0.00 0.00
0.00 0.00 0.00 0.00 0.00 0.00 0.00 0.00 0.00 0.00 0.00 0.00 0.00 0.00 0.00 0.00 0.00 0.00 0.00 0.00 0.00 0.00 0.00 0.00 0.00 0.00 0.00 0.00 0.00 0.00 0.00 0.00 0.00 0.00 0.00 0.00 0.00 0.00 0.01 0.00 0.00 0.00 0.00
0.00 0.00 0.00 0.00 0.00 0.00 0.00 0.00 0.00 0.00 0.00 0.00 0.00 0.00 0.00 0.00 0.00 0.00 0.00 0.00 0.00 0.00 0.00 0.00 0.00 0.00 0.00 0.00 0.00 0.00 0.00 0.00 0.00 0.00 0.00 0.00 0.00 0.00 0.00 0.00 0.00 0.00 0.00
0.00 0.00 0.00 0.00 0.00 0.00 0.00 0.00 0.00 0.00 0.00 0.00 0.00 0.00 0.00 0.00 0.00 0.00 0.00 0.00 0.00 0.00 0.00 0.00 0.00 0.00 0.00 0.00 0.00 0.00 0.00 0.00 0.00 0.00 0.00 0.00 0.00 0.00 0.00 0.00 0.00 0.00 0.00
0.00 0.00 0.00 0.00 0.00 0.00 0.00 0.00 0.00 0.00 0.00 0.00 0.00 0.00 0.00 0.00 0.00 0.00 0.00 0.00 0.00 0.00 0.00 0.00 0.00 0.00 0.00 0.00 0.00 0.00 0.00 0.00 0.00 0.00 0.00 0.00 0.00 0.00 0.00 0.00 0.00 0.00 0.00
0.00 0.00 0.00 0.00 0.00 0.00 0.00 0.00 0.00 0.00 0.00 0.00 0.00 0.00 0.00 0.00 0.00 0.00 0.00 0.00 0.00 0.00 0.00 0.00 0.00 0.00 0.00 0.00 0.00 0.00 0.00 0.00 0.00 0.00 0.00 0.00 0.00 0.00 0.00 0.00 0.00 0.00 0.00
0.00 0.00 0.00 0.00 0.00 0.00 0.00 0.00 0.00 0.00 0.00 0.00 0.00 0.00 0.00 0.00 0.00 0.00 0.00 0.00 0.00 0.00 0.00 0.00 0.00 0.00 0.00 0.00 0.00 0.00 0.00 0.00 0.00 0.00 0.00 0.00 0.00 0.00 0.00 0.00 0.00 0.00 0.00
0.00 0.00 0.00 0.00 0.00 0.00 0.00 0.00 0.00 0.00 0.00 0.00 0.00 0.00 0.00 0.00 0.00 0.00 0.00 0.00 0.00 0.00 0.00 0.00 0.00 0.00 0.00 0.00 0.00 0.00 0.00 0.00 0.00 0.00 0.00 0.00 0.00 0.00 0.00 0.00 0.00 0.00 0.00
0.00 0.00 0.00 0.00 0.00 0.00 0.00 0.00 0.00 0.00 0.00 0.00 0.00 0.00 0.00 0.00 0.00 0.00 0.00 0.00 0.00 0.00 0.00 0.00 0.00 0.00 0.00 0.00 0.00 0.00 0.00 0.00 0.00 0.00 0.00 0.00 0.00 0.00 0.00 0.00 0.00 0.00 0.00
0.00 0.00 0.00 0.00 0.00 0.00 0.00 0.00 0.00 0.00 0.00 0.00 0.00 0.00 0.00 0.00 0.00 0.00 0.00 0.00 0.00 0.00 0.00 0.00 0.00 0.00 0.00 0.00 0.00 0.00 0.00 0.00 0.00 0.00 0.00 0.00 0.00 0.00 0.00 0.00 0.00 0.00 0.00
MSLP
1014.54 1014.35 1014.19 1014.06 1013.92 1013.78 1013.65 1013.53 1013.44 1013.39 1013.38 1013.39 1013.42 1013.46 1013.47 1013.48 1013.46 1013.45 1013.45 1013.49 1013.58 1013.73 1013.92 1014.16 1014.42 1014.68 1014.92 1015.14 1015.34 1015.51 1015.67 1015.83 1015.98 1016.12 1016.24 1016.33 1016.38 1016.40 1016.39 1016.37 1016.36 1016.39 1016.49
1015.06 1014.83 1014.65 1014.50 1014.36 1014.22 1014.10 1014.00 1013.92 1013.86 1013.83 1013.81 1013.79 1013.77 1013.73 1013.67 1013.61 1013.55 1013.52 1013.52 1013.57 1013.67 1013.81 1013.99 1014.19 1014.40 1014.61 1014.81 1015.01 1015.21 1015.42 1015.64 1015.87 1016.09 1016.28 1016.42 1016.51 1016.55 1016.54 1016.49 1016.45 1016.44 1016.49
1015.77 1015.50 1015.28 1015.09 1014.92 1014.76 1014.63 1014.52 1014.42 1014.35 1014.29 1014.24 1014.18 1014.11 1014.02 1013.91 1013.80 1013.70 1013.63 1013.59 1013.60 1013.66 1013.76 1013.90 1014.05 1014.22 1014.40 1014.59 1014.80 1015.03 1015.29 1015.57 1015.86 1016.14 1016.39 1016.58 1016.71 1016.76 1016.75 1016.69 1016.63 1016.58 1016.59
1016.61 1016.32 1016.05 1015.81 1015.59 1015.40 1015.24 1015.10 1014.99 1014.89 1014.81 1014.72 1014.62 1014.50 1014.36 1014.21 1014.05 1013.91 1013.79 1013.72 1013.69 1013.71 1013.77 1013.86 1013.98 1014.12 1014.29 1014.47 1014.69 1014.95 1015.24 1015.57 1015.90 1016.23 1016.52 1016.75 1016.90 1016.97 1016.96 1016.90 1016.82 1016.76 1016.74
1017.50 1017.19 1016.89 1016.61 1016.35 1016.12 1015.92 1015.75 1015.61 1015.50 1015.38 1015.27 1015.14 1014.98 1014.79 1014.59 1014.39 1014.19 1014.03 1013.90 1013.83 1013.81 1013.83 1013.89 1013.98 1014.10 1014.25 1014.44 1014.66 1014.93 1015.25 1015.59 1015.96 1016.31 1016.62 1016.87 1017.04 1017.12 1017.12 1017.07 1016.99 1016.93 1016.90
1018.35 1018.04 1017.73 1017.42 1017.13 1016.87 1016.65 1016.46 1016.30 1016.17 1016.04 1015.91 1015.74 1015.55 1015.32 1015.07 1014.81 1014.55 1014.33 1014.15 1014.02 1013.95 1013.93 1013.96 1014.02 1014.13 1014.27 1014.45 1014.68 1014.95 1015.27 1015.62 1015.99 1016.34 1016.66 1016.91 1017.09 1017.18 1017.20 1017.16 1017.11 1017.06 1017.04
1019.09 1018.81 1018.50 1018.20 1017.90 1017.63 1017.40 1017.21 1017.05 1016.91 1016.77 1016.62 1016.43 1016.20 1015.93 1015.62 1015.30 1014.98 1014.69 1014.45 1014.26 1014.14 1014.08 1014.07 1014.11 1014.20 1014.33 1014.50 1014.72 1014.99 1015.29 1015.63 1015.98 1016.32 1016.63 1016.88 1017.06 1017.17 1017.21 1017.21 1017.18 1017.16 1017.17
1019.68 1019.45 1019.18 1018.90 1018.62 1018.37 1018.15 1017.96 1017.81 1017.67 1017.53 1017.37 1017.16 1016.90 1016.58 1016.22 1015.84 1015.46 1015.10 1014.79 1014.54 1014.37 1014.26 1014.22 1014.23 1014.30 1014.42 1014.58 1014.79 1015.04 1015.33 1015.64 1015.97 1016.29 1016.58 1016.83 1017.02 1017.14 1017.21 1017.24 1017.26 1017.28 1017.32
1020.14 1019.97 1019.76 1019.53 1019.29 1019.06 1018.87 1018.70 1018.56 1018.43 1018.29 1018.11 1017.88 1017.58 1017.22 1016.81 1016.38 1015.93 1015.52 1015.15 1014.85 1014.63 1014.48 1014.41 1014.41 1014.46 1014.56 1014.71 1014.90 1015.13 1015.39 1015.68 1015.99 1016.29 1016.57 1016.82 1017.02 1017.17 1017.27 1017.34 1017.40 1017.46 1017.54
1020.48 1020.39 1020.25 1020.08 1019.89 1019.71 1019.54 1019.40 1019.27 1019.14 1018.99 1018.80 1018.54 1018.21 1017.81 1017.36 1016.88 1016.39 1015.93 1015.52 1015.18 1014.93 1014.76 1014.67 1014.65 1014.69 1014.78 1014.91 1015.09 1015.30 1015.54 1015.81 1016.10 1016.38 1016.66 1016.92 1017.14 1017.32 1017.46 1017.57 1017.66 1017.75 1017.86
1020.77 1020.75 1020.68 1020.57 1020.43 1020.29 1020.16 1020.03 1019.91 1019.78 1019.61 1019.40 1019.11 1018.75 1018.33 1017.85 1017.33 1016.82 1016.34 1015.91 1015.56 1015.29 1015.12 1015.02 1014.99 1015.02 1015.10 1015.23 1015.39 1015.58 1015.80 1016.06 1016.33 1016.61 1016.90 1017.17 1017.41 1017.62 1017.80 1017.94 1018.06 1018.18 1018.29
1021.03 1021.07 1021.06 1021.00 1020.91 1020.81 1020.70 1020.58 1020.46 1020.31 1020.13 1019.89 1019.58 1019.20 1018.76 1018.27 1017.75 1017.24 1016.76 1016.34 1016.00 1015.75 1015.58 1015.49 1015.46 1015.49 1015.56 1015.68 1015.82 1016.00 1016.21 1016.44 1016.71 1016.99 1017.28 1017.57 1017.84 1018.08 1018.28 1018.46 1018.60 1018.72 1018.83
1021.25 1021.34 1021.38 1021.37 1021.32 1021.24 1021.15 1021.04 1020.91 1020.75 1020.55 1020.29 1019.97 1019.58 1019.13 1018.65 1018.16 1017.67 1017.23 1016.85 1016.54 1016.32 1016.17 1016.10 1016.08 1016.11 1016.18 1016.27 1016.40 1016.56 1016.75 1016.97 1017.22 1017.50 1017.80 1018.10 1018.39 1018.65 1018.88 1019.07 1019.22 1019.34 1019.45
1021.43 1021.55 1021.62 1021.64 1021.62 1021.57 1021.50 1021.40 1021.26 1021.10 1020.88 1020.62 1020.29 1019.91 1019.49 1019.04 1018.59 1018.17 1017.78 1017.45 1017.20 1017.02 1016.91 1016.86 1016.85 1016.88 1016.93 1017.01 1017.12 1017.25 1017.41 1017.61 1017.85 1018.12 1018.42 1018.72 1019.02 1019.29 1019.53 1019.72 1019.88 1019.99 1020.08
1021.51 1021.64 1021.74 1021.78 1021.79 1021.77 1021.72 1021.63 1021.51 1021.34 1021.14 1020.88 1020.58 1020.23 1019.86 1019.47 1019.09 1018.74 1018.42 1018.17 1017.98 1017.86 1017.78 1017.75 1017.75 1017.78 1017.82 1017.87 1017.94 1018.04 1018.17 1018.34 1018.55 1018.80 1019.08 1019.37 1019.66 1019.93 1020.17 1020.36 1020.51 1020.62 1020.69
1021.46 1021.59 1021.70 1021.77 1021.81 1021.82 1021.80 1021.74 1021.64 1021.50 1021.33 1021.11 1020.85 1020.56 1020.25 1019.94 1019.65 1019.38 1019.16 1018.99 1018.86 1018.79 1018.75 1018.74 1018.74 1018.76 1018.77 1018.79 1018.83 1018.89 1018.98 1019.11 1019.28 1019.50 1019.74 1020.01 1020.29 1020.54 1020.77 1020.95 1021.09 1021.18 1021.24
1021.27 1021.40 1021.51 1021.61 1021.68 1021.72 1021.74 1021.72 1021.67 1021.58 1021.46 1021.29 1021.10 1020.88 1020.66 1020.44 1020.24 1020.07 1019.93 1019.84 1019.78 1019.75 1019.75 1019.75 1019.75 1019.75 1019.74 1019.73 1019.73 1019.74 1019.79 1019.87 1020.00 1020.18 1020.39 1020.62 1020.86 1021.09 1021.30 1021.46 1021.59 1021.68 1021.73
1020.97 1021.08 1021.20 1021.31 1021.42 1021.50 1021.57 1021.60 1021.61 1021.58 1021.51 1021.42 1021.30 1021.18 1021.04 1020.92 1020.81 1020.73 1020.68 1020.66 1020.65 1020.67 1020.68 1020.70 1020.70 1020.68 1020.65 1020.61 1020.57 1020.55 1020.56 1020.60 1020.69 1020.82 1020.99 1021.18 1021.38 1021.58 1021.76 1021.91 1022.03 1022.11 1022.16
1020.60 1020.70 1020.82 1020.95 1021.08 1021.20 1021.31 1021.39 1021.45 1021.48 1021.49 1021.47 1021.44 1021.39 1021.35 1021.32 1021.30 1021.30 1021.32 1021.35 1021.40 1021.44 1021.48 1021.50 1021.50 1021.47 1021.42 1021.36 1021.30 1021.26 1021.24 1021.25 1021.30 1021.39 1021.52 1021.68 1021.84 1022.01 1022.16 1022.30 1022.40 1022.48 1022.54
1020.23 1020.32 1020.43 1020.57 1020.71 1020.86 1021.00 1021.12 1021.23 1021.31 1021.37 1021.42 1021.46 1021.49 1021.52 1021.57 1021.63 1021.70 1021.78 1021.86 1021.94 1022.02 1022.07 1022.10 1022.10 1022.07 1022.02 1021.95 1021.88 1021.83 1021.79 1021.79 1021.81 1021.88 1021.98 1022.10 1022.23 1022.37 1022.50 1022.61 1022.71 1022.80 1022.86
1019.93 1020.00 1020.10 1020.23 1020.37 1020.52 1020.67 1020.81 1020.94 1021.06 1021.16 1021.25 1021.34 1021.43 1021.53 1021.64 1021.76 1021.88 1022.01 1022.14 1022.25 1022.35 1022.42 1022.46 1022.46 1022.44 1022.40 1022.34 1022.27 1022.22 1022.19 1022.18 1022.20 1022.25 1022.32 1022.42 1022.53 1022.64 1022.75 1022.86 1022.96 1023.04 1023.13
1019.73 1019.78 1019.86 1019.96 1020.08 1020.21 1020.35 1020.48 1020.60 1020.73 1020.84 1020.96 1021.08 1021.22 1021.36 1021.51 1021.68 1021.85 1022.02 1022.17 1022.32 1022.43 1022.52 1022.57 1022.59 1022.59 1022.56 1022.52 1022.47 1022.43 1022.41 1022.41 1022.43 1022.47 1022.54 1022.62 1022.72 1022.82 1022.92 1023.02 1023.11 1023.21 1023.31
1019.62 1019.64 1019.69 1019.76 1019.85 1019.94 1020.03 1020.13 1020.23 1020.33 1020.43 1020.55 1020.69 1020.84 1021.01 1021.20 1021.40 1021.60 1021.80 1021.99 1022.16 1022.30 1022.40 1022.48 1022.52 1022.53 1022.52 1022.50 1022.48 1022.47 1022.46 1022.48 1022.51 1022.56 1022.62 1022.70 1022.79 1022.88 1022.98 1023.07 1023.18 1023.28 1023.39
1019.55 1019.56 1019.57 1019.60 1019.63 1019.67 1019.71 1019.75 1019.81 1019.87 1019.95 1020.05 1020.18 1020.34 1020.53 1020.74 1020.96 1021.19 1021.42 1021.63 1021.83 1021.99 1022.12 1022.22 1022.28 1022.32 1022.34 1022.34 1022.35 1022.36 1022.38 1022.41 1022.46 1022.52 1022.59 1022.67 1022.75 1022.84 1022.94 1023.04 1023.14 1023.26 1023.39
1019.46 1019.45 1019.43 1019.42 1019.40 1019.38 1019.36 1019.34 1019.34 1019.36 1019.41 1019.48 1019.60 1019.75 1019.94 1020.16 1020.41 1020.66 1020.92 1021.16 1021.38 1021.57 1021.72 1021.85 1021.94 1022.00 1022.05 1022.08 1022.11 1022.15 1022.19 1022.24 1022.31 1022.38 1022.46 1022.55 1022.64 1022.74 1022.83 1022.94 1023.05 1023.17 1023.30
1019.27 1019.25 1019.21 1019.16 1019.10 1019.03 1018.95 1018.89 1018.84 1018.81 1018.82 1018.86 1018.96 1019.10 1019.29 1019.52 1019.78 1020.05 1020.33 1020.60 1020.84 1021.06 1021.25 1021.40 1021.52 1021.61 1021.69 1021.75 1021.81 1021.87 1021.94 1022.02 1022.10 1022.20 1022.29 1022.39 1022.49 1022.59 1022.70 1022.80 1022.92 1023.05 1023.18
Thickness
5646 5650 5654 5658 5662 5665 5668 5671 5674 5677 5678 5679 5679 5679 5679 5679 5679 5679 5678 5678 5677 5676 5675 5675 5675 5675 5674 5674 5674 5673 5671 5670 5669 5671 5675 5678 5680 5682 5684 5685 5686 5686 5686
5641 5644 5648 5651 5654 5657 5659 5662 5665 5667 5668 5669 5669 5670 5670 5670 5670 5670 5669 5669 5668 5668 5667 5668 5668 5668 5668 5667 5667 5666 5665 5665 5664 5664 5666 5669 5672 5674 5676 5678 5679 5680 5680
5637 5640 5643 5645 5648 5650 5652 5655 5656 5657 5659 5659 5660 5660 5660 5660 5661 5661 5661 5661 5661 5661 5661 5661 5661 5661 5660 5660 5660 5660 5660 5660 5659 5658 5659 5661 5663 5666 5668 5670 5672 5673 5674
5634 5636 5638 5639 5641 5643 5645 5647 5648 5650 5650 5651 5651 5652 5653 5653 5653 5654 5654 5654 5654 5654 5655 5655 5655 5655 5655 5655 5654 5654 5654 5653 5653 5652 5652 5653 5655 5659 5661 5662 5663 5665 5666
5632 5633 5633 5635 5637 5639 5639 5640 5641 5642 5643 5643 5644 5645 5646 5647 5647 5647 5647 5648 5647 5647 5647 5648 5649 5650 5651 5651 5650 5649 5649 5647 5647 5646 5646 5647 5649 5651 5653 5655 5656 5657 5658
5629 5629 5630 5631 5633 5633 5633 5634 5634 5634 5635 5635 5635 5636 5638 5640 5641 5642 5641 5640 5640 5640 5640 5641 5643 5644 5645 5645 5646 5646 5645 5644 5642 5641 5641 5642 5643 5645 5647 5648 5649 5650 5650
5627 5627 5628 5628 5629 5628 5629 5628 5628 5628 5628 5628 5627 5628 5629 5631 5634 5634 5634 5633 5633 5632 5632 5633 5634 5636 5637 5637 5638 5639 5639 5640 5641 5639 5638 5638 5639 5640 5642 5643 5643 5644 5643
5627 5626 5626 5626 5626 5625 5625 5624 5623 5623 5622 5621 5620 5620 5621 5623 5625 5626 5626 5625 5624 5624 5624 5625 5626 5627 5629 5630 5630 5630 5630 5632 5633 5634 5634 5634 5635 5636 5638 5638 5638 5637 5637
5627 5626 5625 5625 5624 5623 5622 5620 5619 5618 5617 5615 5614 5613 5614 5615 5617 5618 5618 5617 5616 5615 5615 5616 5618 5620 5623 5624 5624 5623 5623 5623 5626 5627 5628 5629 5630 5632 5633 5633 5632 5632 5629
5628 5627 5625 5624 5623 5621 5619 5617 5616 5614 5612 5611 5609 5608 5607 5607 5609 5611 5610 5609 5608 5607 5607 5609 5611 5613 5616 5617 5617 5617 5617 5617 5619 5620 5621 5622 5624 5625 5626 5627 5627 5626 5624
5631 5629 5627 5625 5623 5620 5618 5616 5614 5612 5609 5607 5605 5604 5602 5601 5602 5604 5604 5603 5602 5601 5601 5601 5604 5607 5609 5611 5612 5612 5612 5613 5613 5614 5614 5615 5617 5618 5619 5619 5621 5621 5620
5634 5631 5627 5625 5624 5620 5617 5614 5612 5609 5607 5604 5602 5601 5599 5597 5598 5598 5599 5599 5598 5596 5596 5596 5598 5601 5603 5605 5606 5607 5608 5608 5608 5608 5608 5608 5609 5609 5610 5612 5613 5613 5613
5636 5632 5628 5625 5622 5619 5616 5613 5610 5608 5605 5602 5600 5597 5596 5595 5595 5595 5595 5595 5594 5593 5593 5594 5595 5596 5598 5599 5600 5602 5602 5603 5603 5603 5602 5602 5602 5603 5605 5605 5606 5606 5606
5638 5633 5629 5625 5622 5619 5616 5613 5610 5607 5603 5601 5598 5596 5594 5593 5593 5593 5593 5592 5592 5591 5590 5591 5592 5593 5594 5594 5595 5596 5596 5597 5598 5597 5596 5597 5598 5599 5599 5600 5599 5600 5599
5640 5636 5631 5627 5623 5620 5616 5613 5610 5607 5604 5601 5598 5596 5594 5593 5592 5593 5592 5592 5591 5591 5590 5590 5590 5590 5590 5590 5590 5590 5591 5592 5592 5592 5593 5593 5593 5593 5593 5594 5594 5594 5592
5643 5639 5634 5629 5625 5622 5618 5615 5613 5610 5608 5605 5603 5600 5597 5596 5595 5594 5594 5593 5593 5592 5591 5588 5586 5585 5585 5585 5585 5586 5586 5587 5587 5589 5589 5589 5589 5589 5588 5588 5588 5588 5586
5647 5643 5638 5633 5629 5625 5621 5618 5615 5613 5611 5608 5605 5603 5601 5599 5598 5596 5595 5594 5593 5592 5589 5586 5584 5583 5582 5582 5582 5583 5583 5583 5585 5586 5586 5586 5586 5586 5586 5585 5584 5584 5582
5651 5648 5643 5638 5634 5630 5626 5622 5619 5615 5612 5610 5608 5606 5604 5602 5600 5598 5597 5596 5592 5590 5587 5585 5584 5583 5582 5582 5582 5582 5583 5584 5585 5585 5585 5585 5585 5584 5584 5583 5582 5582 5581
5654 5651 5647 5643 5639 5635 5632 5628 5624 5621 5616 5613 5610 5609 5607 5605 5603 5601 5599 5595 5592 5589 5587 5586 5585 5585 5584 5584 5584 5584 5584 5584 5585 5585 5585 5584 5584 5584 5583 5582 5581 5581 5580
5657 5655 5652 5647 5643 5640 5636 5633 5629 5625 5622 5618 5615 5612 5610 5608 5605 5602 5600 5597 5595 5592 5591 5590 5589 5588 5587 5587 5587 5587 5586 5586 5586 5586 5585 5585 5585 5585 5584 5583 5582 5580 5579
5659 5657 5656 5651 5647 5644 5641 5637 5634 5630 5627 5623 5620 5618 5616 5612 5609 5607 5604 5602 5600 5598 5596 5594 5593 5592 5591 5591 5590 5590 5589 5588 5588 5588 5587 5587 5586 5585 5584 5583 5582 5580 5579
5660 5658 5656 5653 5651 5648 5645 5642 5639 5635 5632 5630 5626 5624 5622 5618 5615 5612 5610 5608 5605 5603 5602 5600 5598 5597 5596 5595 5594 5593 5592 5591 5591 5590 5589 5589 5588 5586 5585 5584 5582 5580 5579
5661 5659 5658 5656 5654 5652 5650 5646 5643 5640 5638 5635 5632 5629 5626 5623 5620 5618 5616 5614 5611 5609 5607 5605 5604 5602 5601 5600 5599 5597 5596 5595 5594 5593 5592 5591 5589 5588 5586 5585 5583 5581 5579
5660 5659 5658 5657 5656 5654 5652 5650 5648 5645 5643 5641 5638 5635 5632 5629 5627 5624 5622 5619 5617 5615 5613 5611 5609 5607 5606 5604 5603 5602 5600 5599 5598 5597 5595 5593 5591 5589 5587 5585 5583 5581 5579
5660 5659 5658 5657 5656 5655 5654 5653 5651 5650 5648 5646 5644 5641 5639 5636 5633 5630 5628 5625 5622 5619 5617 5615 5613 5612 5610 5608 5607 5605 5604 5602 5601 5599 5597 5595 5593 5590 5588 5586 5583 5581 5578
5659 5658 5658 5657 5657 5656 5655 5655 5654 5653 5651 5650 5648 5646 5644 5641 5639 5636 5633 5629 5626 5624 5621 5619 5617 5615 5613 5611 5609 5608 5606 5605 5603 5601 5599 5596 5594 5591 5588 5585 5583 5580 5577